User: anonymous   Login
Location: Kuppenheim
(48.8299°N, 8.2568°E)
Time: 23:11:47
(UTC+00:00)
Language:

Cosmos 1437 Rocket - Orbit

View from above orbital plane
View from above orbital plane
View from above satellite
View from above satellite

Ground track
Ground track

The orbit data is extracted from the following two-line orbital elements,

1 13771U 83003B   21263.34642121  .00000088  00000-0  36974-5 0  9990
2 13771  81.1725   9.0304 0046587 241.7781 117.8738 15.11029201108681
Epoch (UTC): 20 September 2021 08:18:50
Eccentricity: 0.0046587
inclination: 81.1725°
perigee height: 501 km
apogee height: 565 km
right ascension of ascending node: 9.0304°
argument of perigee: 241.7781°
revolutions per day: 15.11029201
mean anomaly at epoch: 117.8738°
orbit number at epoch: 10868

The dashed part of the orbit path shows where the satellite is in the earth's shadow,  

DLR